GW4132 Weather Reports


Display with metric or nautical units.
time (UTC)temp
F
wind
direction
speed
MPH
gust
MPH
rain 1hr
in
rain 24hr
in
rain mn
in
humidity
%
barometer
mb
20260902234543 52 250 0.0 1.0 0.00 0.08 0.04 91 1009.9
20260902233036 53 261 0.0 2.0 0.00 0.08 0.04 89 1009.6
20260902231538 54 252 0.0 2.0 0.00 0.08 0.04 85 1009.6
20260902230035 56 124 0.0 3.0 0.00 0.08 0.04 78 1009.6
20260902224536 57 118 0.0 3.0 0.00 0.08 0.04 76 1009.3
20260902223035 58 234 1.0 5.0 0.00 0.08 0.04 73 1009.3
20260902221552 58 112 1.0 4.0 0.00 0.08 0.04 72 1009.3
20260902220036 58 159 0.0 3.0 0.00 0.08 0.04 72 1009.3
20260902214537 57 188 0.0 2.0 0.00 0.08 0.04 77 1009.5
20260902213035 57 158 0.0 2.0 0.00 0.08 0.04 76 1009.7
20260902211542 57 225 0.0 3.0 0.00 0.08 0.04 73 1009.9
20260902210044 58 209 0.0 4.0 0.00 0.08 0.04 72 1009.9
20260902204553 58 144 0.0 3.0 0.00 0.08 0.04 72 1009.9
20260902203038 59 235 1.0 3.0 0.00 0.08 0.04 70 1010.0
20260902201545 57 103 1.0 3.0 0.00 0.08 0.04 72 1010.0
20260902200045 56 142 0.0 2.0 0.00 0.08 0.04 70 1010.4
20260902194556 56 190 0.0 3.0 0.00 0.08 0.04 77 1010.6
20260902193046 56 161 0.0 4.0 0.00 0.08 0.04 78 1010.9
20260902191553 57 83 1.0 4.0 0.00 0.08 0.04 75 1010.8
20260902190043 59 82 1.0 5.0 0.00 0.08 0.04 68 1010.9
20260902184541 59 197 1.0 4.0 0.00 0.08 0.04 69 1011.2
20260902183112 57 95 1.0 2.0 0.00 0.08 0.04 79 1011.3
20260902181544 55 157 0.0 3.0 0.00 0.08 0.04 83 1011.7
20260902180049 55 53 1.0 2.0 0.00 0.08 0.04 83 1011.6
20260902174546 54 84 0.0 3.0 0.00 0.08 0.04 82 1011.7
20260902173052 54 117 0.0 3.0 0.00 0.08 0.04 84 1011.7
20260902171539 54 88 0.0 2.0 0.00 0.08 0.04 82 1011.8
20260902170050 54 81 0.0 2.0 0.00 0.08 0.04 87 1011.8
20260902164557 52 119 0.0 2.0 0.00 0.08 0.04 94 1012.0
20260902163041 51 119 0.0 2.0 0.00 0.08 0.04 96 1012.0
20260902161540 50 197 0.0 1.0 0.00 0.08 0.04 97 1012.2
20260902160046 50 163 0.0 1.0 0.00 0.08 0.04 97 1012.3
20260902154552 49 163 0.0 1.0 0.00 0.08 0.04 98 1012.5
20260902153038 49 80 0.0 1.0 0.00 0.08 0.04 98 1012.5
20260902151540 49 53 0.0 1.0 0.00 0.08 0.04 98 1012.8
20260902150048 48 53 0.0 1.0 0.01 0.08 0.04 98 1012.8
20260902144543 48 53 0.0 1.0 0.01 0.08 0.04 99 1013.1
20260902143042 48 53 0.0 1.0 0.01 0.08 0.04 98 1013.2
20260902141540 47 90 1.0 3.0 0.01 0.07 0.04 98 1013.3
20260902140046 47 5 0.0 1.0 0.01 0.07 0.04 98 1013.2
20260902134548 47 5 0.0 1.0 0.02 0.07 0.04 98 1013.1
20260902133045 48 5 0.0 2.0 0.02 0.07 0.04 98 1013.1
20260902131606 48 61 0.0 2.0 0.02 0.06 0.03 98 1012.9
20260902130051 48 177 0.0 1.0 0.02 0.06 0.03 98 1013.0
20260902124544 48 177 0.0 3.0 0.01 0.04 0.02 98 1013.1
20260902123047 48 198 0.0 0.0 0.02 0.04 0.02 98 1013.1
20260902121548 48 198 0.0 0.0 0.01 0.04 0.01 98 1013.2
20260902120048 48 198 0.0 0.0 0.01 0.04 0.01 98 1013.3
20260902114551 48 198 0.0 0.0 0.01 0.04 0.01 98 1013.4
20260902113047 48 198 0.0 0.0 0.00 0.03 0.00 98 1013.6
20260902111548 48 198 0.0 0.0 0.00 0.03 0.00 98 1013.6
20260902104543 49 198 0.0 0.0 0.00 0.03 0.00 98 1013.7
20260902103059 49 198 0.0 1.0 0.00 0.03 0.00 98 1014.2
20260902101548 49 246 0.0 0.0 0.00 0.03 0.00 98 1014.1
20260902100049 49 215 0.0 1.0 0.00 0.03 0.00 98 1014.2
20260902094540 49 215 0.0 2.0 0.00 0.03 0.00 98 1014.2
20260902093046 49 240 0.0 1.0 0.00 0.03 0.00 98 1013.9
20260902091538 48 240 0.0 2.0 0.00 0.03 0.00 98 1014.6
20260902090051 48 147 0.0 1.0 0.00 0.03 0.00 98 1014.2
20260902084548 48 147 0.0 0.0 0.00 0.03 0.00 97 1014.2
20260902083044 48 147 0.0 0.0 0.00 0.03 0.00 97 1014.5
20260902081548 48 147 0.0 1.0 0.00 0.03 0.00 96 1014.7
20260902080054 49 147 0.0 0.0 0.00 0.03 0.00 97 1014.7
20260902074552 49 147 0.0 1.0 0.02 0.03 0.00 97 1014.9
20260902073049 49 237 0.0 1.0 0.03 0.03 0.00 97 1015.3
20260902071543 49 237 0.0 1.0 0.03 0.03 0.00 97 1015.0
20260902070054 50 246 0.0 2.0 0.03 0.03 0.00 97 1015.6
20260902064551 50 223 0.0 2.0 0.00 0.00 0.00 97 1015.5
20260902063048 50 68 0.0 1.0 0.00 0.00 0.00 97 1015.2
20260902061548 50 68 0.0 0.0 0.00 0.00 0.00 96 1015.1
20260902060031 50 68 0.0 1.0 0.00 0.00 0.00 96 1015.2
20260902054712 50 68 0.0 1.0 0.00 0.00 0.00 96 1015.4
20260902053041 50 68 0.0 1.0 0.00 0.00 0.00 96 1015.5
20260902051543 50 66 0.0 1.0 0.00 0.00 0.00 95 1015.5
20260902050041 50 53 0.0 0.0 0.00 0.00 0.00 95 1015.6
20260902044540 51 53 0.0 1.0 0.00 0.00 0.00 94 1015.6
20260902043050 51 53 0.0 2.0 0.00 0.00 0.00 94 1015.8
20260902041556 51 53 0.0 1.0 0.00 0.00 0.00 93 1015.9
20260902040043 51 42 0.0 2.0 0.00 0.00 0.00 92 1015.6
20260902034544 51 74 0.0 2.0 0.00 0.00 0.00 91 1015.7
20260902033049 52 73 0.0 2.0 0.00 0.00 0.00 91 1015.6
20260902031542 52 86 0.0 2.0 0.00 0.00 0.00 91 1015.2
20260902030050 52 153 0.0 2.0 0.00 0.00 0.00 91 1015.1
20260902024549 52 92 0.0 4.0 0.00 0.00 0.00 91 1015.2
20260902023048 52 88 0.0 3.0 0.00 0.00 0.00 91 1015.2
20260902021548 52 50 0.0 2.0 0.00 0.00 0.00 90 1015.0
20260902020045 53 88 0.0 3.0 0.00 0.00 0.00 90 1015.3
20260902014550 53 79 0.0 4.0 0.00 0.00 0.00 89 1015.1
20260902013044 53 100 0.0 2.0 0.00 0.00 0.00 89 1015.0
20260902011539 53 80 1.0 2.0 0.00 0.00 0.00 89 1015.0
20260902010047 53 100 1.0 3.0 0.00 0.00 0.00 88 1014.9
20260902004548 53 23 0.0 3.0 0.00 0.00 0.00 88 1015.0
20260902003054 53 65 1.0 5.0 0.00 0.00 0.00 88 1015.1
20260902001552 54 12 1.0 4.0 0.00 0.00 0.00 89 1015.2
20260902000112 54 56 0.0 4.0 0.00 0.00 0.00 89 1015.0